RH
56 55 55 58 56 54 52 49 48 47 47 49 51 52 52 51 50 49 47 44 36 32 34 32 29 29 32 34 34 35 35 33 34 36 34 27 23 21 21 22 23 26 27 29 32 36 40 42 42 41 41 42 43 44 45 44 44 44 42 41 40 40 41 41 42 44 45 44 42 41 41 41 41 41 41 39 37 35 37 39 41 46 48 48 47
55 54 52 53 51 52 52 49 48 47 48 50 50 51 51 49 50 49 45 41 35 33 35 31 29 31 33 33 34 35 35 34 34 35 33 27 23 21 21 23 24 26 28 32 37 40 42 41 40 41 44 45 46 46 45 45 44 43 41 41 41 42 42 44 45 46 45 44 43 42 41 41 40 40 40 39 37 33 34 36 39 44 45 45 45
56 54 50 49 48 53 55 52 49 48 48 50 49 49 51 50 49 47 41 38 35 32 30 28 30 33 32 32 34 35 36 36 35 36 33 27 23 22 22 24 26 27 31 36 41 41 40 40 41 44 46 46 45 45 45 44 43 42 41 42 44 45 45 46 46 45 44 43 42 40 39 39 39 39 39 38 37 35 33 32 33 37 38 38 40
53 52 50 49 50 54 55 50 47 46 47 48 48 49 50 48 45 42 39 37 34 30 27 28 32 33 32 32 34 36 37 35 33 33 31 26 23 23 24 25 26 29 34 39 41 40 39 40 42 44 44 43 42 42 41 41 41 41 42 44 45 46 46 45 44 43 41 40 38 37 36 36 36 36 36 35 35 33 31 29 28 28 29 30 31
48 49 48 48 51 51 48 46 45 43 43 43 42 42 43 43 42 40 38 37 32 29 28 30 32 32 32 33 35 36 36 34 32 32 31 29 27 26 25 26 27 30 36 40 39 38 39 40 41 41 40 39 39 39 40 41 42 42 42 43 44 45 45 44 43 41 39 38 37 37 36 35 35 34 34 33 32 30 30 30 28 27 27 27 27
44 46 47 46 47 44 42 42 42 39 38 39 39 40 43 43 40 39 38 35 31 29 30 33 35 35 34 34 35 37 37 35 33 34 32 31 31 30 27 26 28 31 37 40 37 37 38 38 39 38 38 37 38 39 40 42 42 41 41 42 44 46 46 44 42 40 39 38 38 37 36 35 34 33 32 32 31 29 30 30 29 30 29 27 25
42 44 44 43 40 39 40 39 41 40 38 40 40 42 43 42 39 39 39 35 31 31 33 35 36 37 36 34 36 38 37 35 34 34 32 31 32 32 32 31 30 33 39 39 36 36 37 38 39 37 37 37 38 39 40 42 41 41 42 43 45 46 46 43 40 39 39 38 37 36 36 35 34 33 32 32 31 30 29 29 29 32 31 29 26
39 40 40 38 36 37 39 39 43 42 39 38 37 40 41 40 40 40 39 35 33 34 36 38 37 37 37 35 37 37 34 34 34 32 31 31 30 29 32 33 33 36 40 41 37 36 37 39 39 37 36 37 38 39 39 40 41 42 44 46 45 45 44 41 39 39 39 37 37 36 36 36 36 36 34 33 33 31 29 28 29 31 31 30 28
35 38 38 36 36 38 39 42 44 41 41 41 36 37 40 41 42 42 39 36 35 36 36 36 35 36 36 35 37 36 34 36 35 32 31 32 30 29 30 31 34 38 42 45 40 37 38 40 38 36 36 36 37 38 38 38 39 41 43 44 42 41 42 40 39 41 39 38 38 38 37 37 37 38 37 35 34 32 29 28 29 30 29 28 28
33 36 36 35 36 40 41 42 42 41 43 43 38 39 40 40 41 41 40 40 39 36 36 41 43 43 39 35 37 37 35 34 31 29 30 31 31 31 29 31 34 36 42 46 42 38 39 40 37 37 35 35 36 36 36 36 37 38 38 39 38 39 40 39 40 41 39 39 39 38 38 37 38 39 39 37 35 33 31 30 30 30 29 28 27
34 36 38 38 39 42 41 40 41 42 43 42 40 40 40 40 41 40 42 43 41 37 39 46 51 48 40 35 36 37 34 32 30 30 32 31 31 31 29 32 34 33 37 42 42 39 38 38 38 38 37 36 37 35 35 36 35 35 35 36 36 37 38 36 40 42 39 38 37 37 38 37 38 39 40 38 34 33 33 33 31 30 27 26 26
34 37 40 42 43 43 41 40 40 42 44 43 41 41 41 41 42 43 42 41 37 37 38 43 45 41 36 34 35 36 34 33 32 31 30 30 31 33 32 32 32 33 37 40 43 40 36 36 38 40 40 37 37 35 35 35 33 32 33 35 35 36 36 35 39 42 39 37 36 37 37 38 38 39 39 37 34 32 33 33 31 30 27 24 26
33 38 40 42 45 44 42 41 43 45 45 44 43 43 42 39 41 43 44 42 37 36 36 38 38 35 34 34 34 34 33 34 33 30 31 32 34 37 36 34 32 33 35 36 40 40 35 35 38 40 41 41 38 35 35 33 32 31 31 34 35 35 34 35 39 41 39 37 37 38 38 39 38 38 37 33 31 30 30 31 30 29 26 24 26
32 38 41 42 43 44 43 42 45 47 45 40 39 41 41 39 40 43 44 43 38 35 34 34 33 33 33 33 34 34 33 35 36 39 43 40 37 37 38 41 38 31 30 31 36 39 36 34 36 36 37 40 36 34 36 33 31 32 31 33 34 34 33 35 39 39 39 37 38 39 39 39 38 38 36 29 26 27 26 26 27 27 26 24 26
31 35 38 41 41 42 43 42 41 41 41 41 38 38 40 39 41 43 43 41 37 32 32 34 34 33 34 35 35 35 37 40 42 49 53 47 41 37 44 51 42 30 28 30 34 35 34 32 32 32 30 32 32 33 37 34 32 32 30 32 32 33 33 35 38 38 38 38 39 39 38 40 38 36 35 29 24 24 23 22 23 25 25 25 26
32 34 38 42 42 41 42 42 40 39 40 42 41 39 39 39 41 43 42 40 34 30 31 34 36 35 35 37 38 37 40 44 47 51 50 50 49 43 48 52 37 29 34 36 35 31 31 32 32 32 29 28 29 31 34 34 35 31 28 30 31 33 35 35 37 37 37 38 39 39 38 39 38 35 34 30 24 23 21 19 20 22 24 25 26
32 37 44 45 44 44 43 41 40 40 40 43 45 44 43 42 41 42 43 42 35 32 34 34 34 37 37 39 40 41 44 47 49 51 48 52 56 46 47 52 37 31 38 40 36 32 33 33 32 33 33 32 31 29 32 34 35 32 30 32 33 35 36 35 36 36 37 38 38 38 38 38 37 34 33 31 26 23 21 20 20 21 23 26 27
34 40 45 43 44 47 45 42 41 41 42 44 48 47 47 45 43 43 45 44 38 35 36 35 33 37 39 41 44 44 46 46 46 50 51 54 54 43 44 55 46 36 39 42 41 41 39 35 34 36 37 37 34 30 33 36 37 35 34 36 36 37 36 34 35 35 37 37 37 37 37 36 35 33 33 31 27 24 24 22 22 23 23 26 27
37 42 43 38 41 44 45 45 43 44 44 46 49 48 49 48 45 46 46 44 42 38 36 34 33 37 40 41 44 44 45 46 43 47 50 49 51 47 45 52 52 48 50 54 55 54 48 39 36 38 38 39 37 34 36 38 39 37 36 37 38 38 36 34 34 35 36 37 37 37 35 34 33 32 32 31 27 25 26 25 24 25 25 26 27
40 40 40 36 38 40 43 46 47 49 46 46 49 50 50 49 45 44 42 40 40 39 37 36 33 37 41 42 43 41 41 45 45 45 46 45 52 55 50 49 54 58 61 61 59 57 53 46 41 42 41 39 39 39 39 39 39 38 37 38 38 38 37 36 34 35 37 37 36 34 32 32 31 31 32 29 25 24 25 26 25 26 27 27 28
42 38 37 36 38 39 41 44 48 49 45 47 52 51 50 46 41 39 38 37 38 38 39 38 36 38 40 40 41 39 40 44 46 47 48 49 53 56 54 53 54 57 58 57 58 58 56 51 48 48 46 42 41 41 41 40 40 39 38 38 38 38 38 36 35 35 38 37 33 32 31 31 30 30 29 26 22 22 23 24 24 25 26 28 29
43 37 35 36 38 40 40 42 46 46 45 50 53 49 46 42 38 40 39 37 38 37 39 39 40 43 42 39 40 40 40 44 47 50 51 51 53 55 57 58 56 56 55 53 56 59 58 55 50 50 48 45 43 42 42 43 41 39 40 39 39 38 38 37 35 36 37 34 31 30 30 29 29 28 25 22 20 21 21 22 22 22 24 26 28
43 37 35 36 39 41 42 44 45 45 46 50 51 47 45 42 41 43 39 37 38 38 41 41 41 44 42 39 37 37 40 43 46 51 50 47 50 53 57 61 59 58 57 55 56 56 57 57 53 50 49 47 45 43 44 46 42 38 39 40 38 37 37 37 37 36 35 31 29 29 27 26 27 26 23 21 20 20 19 19 20 20 20 22 26
46 41 38 40 42 40 42 44 44 46 46 46 48 49 48 47 46 45 40 38 37 37 39 41 42 42 40 39 37 35 40 45 46 52 53 47 45 48 51 56 57 56 56 55 56 55 56 59 57 54 53 50 49 47 46 46 40 37 38 38 38 37 37 39 37 35 32 29 26 26 25 25 26 25 22 21 20 18 17 17 18 18 18 18 21
49 47 45 46 45 38 39 42 44 45 44 43 46 47 50 53 48 44 43 41 37 37 37 39 43 43 39 42 44 43 47 51 50 53 55 50 46 45 46 48 50 53 54 54 57 58 57 57 57 58 58 55 53 51 49 46 42 39 39 39 41 40 39 39 37 34 32 28 25 25 24 24 24 22 20 19 17 15 15 14 15 16 16 16 16
48 50 50 51 48 42 39 40 43 44 40 40 41 40 44 50 47 44 46 44 39 38 37 38 44 44 40 43 49 50 52 55 54 54 58 57 54 52 50 49 48 48 50 51 56 59 57 55 56 59 61 57 54 53 51 48 45 43 43 44 44 42 39 39 37 35 32 28 25 25 24 22 22 19 17 16 14 13 12 12 12 13 14 14 14
46 48 50 50 50 49 44 41 42 42 39 36 36 37 38 40 42 43 44 44 41 38 36 38 44 47 44 43 46 50 52 55 55 54 58 60 57 55 54 52 50 48 48 48 50 53 53 52 53 56 56 52 50 51 51 49 48 47 47 47 45 41 38 38 37 35 32 30 28 26 26 25 24 21 17 15 13 12 12 11 12 11 11 12 12
50 49 48 49 49 50 47 43 41 40 38 35 35 38 38 36 38 39 39 41 41 38 37 39 42 45 47 45 43 44 48 51 52 51 54 55 53 53 51 48 47 47 46 45 44 45 45 45 45 48 49 49 49 50 50 51 50 49 48 47 45 41 38 36 35 35 34 32 30 28 27 27 26 23 19 16 14 13 12 12 12 12 12 12 12
56 52 50 50 48 48 47 44 44 41 38 37 36 38 39 38 38 38 36 37 39 40 40 40 42 44 47 49 47 44 44 46 47 47 49 50 49 47 46 46 46 46 45 44 43 41 41 43 43 45 47 49 50 49 49 50 49 48 48 46 43 40 37 34 34 37 35 33 31 28 27 26 25 23 20 18 15 13 13 13 13 14 14 13 13
54 55 55 52 48 48 46 44 45 44 41 40 40 39 40 40 39 39 38 38 40 44 44 41 42 43 45 49 51 48 46 46 47 48 47 50 50 47 45 46 47 46 46 44 42 40 40 42 44 45 46 47 47 46 47 47 47 47 47 44 41 38 35 34 36 36 34 32 31 28 26 26 24 22 20 18 16 15 15 14 14 14 15 14 14
52 54 57 56 52 49 45 43 46 45 42 43 43 41 40 41 40 41 43 42 40 41 41 40 39 41 43 44 45 45 45 45 46 47 46 47 48 47 45 45 45 47 46 44 42 41 41 40 41 43 44 46 46 45 43 43 45 46 45 42 39 36 35 35 35 33 32 32 31 27 25 24 22 21 20 18 17 17 17 16 16 15 15 15 14
51 52 54 55 55 54 49 45 48 49 46 45 45 43 41 41 42 44 46 46 45 42 40 39 40 44 46 43 40 39 39 39 40 42 43 44 46 47 46 44 45 47 46 44 45 46 43 41 41 42 44 45 46 45 43 42 44 44 42 39 38 37 36 35 34 32 32 32 30 27 26 24 22 20 19 17 18 18 18 18 18 17 16 16 15
56 57 56 54 54 54 52 51 52 53 52 51 50 49 46 42 42 46 48 47 47 47 46 42 42 46 48 45 40 36 35 34 35 36 40 43 45 47 48 48 49 48 48 48 49 49 46 42 40 42 43 44 44 44 42 41 43 43 40 38 39 38 36 34 34 34 33 32 29 28 27 24 21 20 18 18 18 19 18 20 20 18 17 16 16
55 57 57 56 56 53 51 54 55 55 55 54 52 53 51 46 44 46 48 47 46 45 43 42 43 44 45 44 39 36 35 34 34 36 40 42 45 46 48 49 50 50 49 49 48 48 46 41 39 41 43 43 42 40 38 38 40 41 39 38 37 36 34 34 35 34 33 31 28 26 25 23 21 19 19 18 19 18 19 21 22 20 20 19 18
51 55 56 57 59 58 55 55 54 55 56 53 50 51 53 52 48 47 50 51 49 46 42 42 43 43 43 43 42 41 41 41 41 43 45 45 46 47 47 48 49 48 49 48 47 48 46 41 39 40 39 37 36 34 35 37 38 39 38 36 34 33 34 34 33 32 31 30 26 24 22 20 19 19 20 20 19 18 20 22 23 23 24 24 21
52 54 56 56 56 57 59 57 52 51 53 53 51 50 51 53 50 48 50 52 52 50 47 44 44 45 46 47 47 46 46 47 47 48 48 47 47 48 49 51 50 49 49 49 48 47 44 41 39 36 35 33 33 34 36 36 35 34 33 32 31 32 33 32 30 29 29 27 24 22 21 19 19 20 21 20 19 19 21 23 24 26 28 27 24
53 54 56 57 55 55 58 59 55 50 50 50 50 47 48 52 53 50 48 50 51 50 48 45 44 45 47 49 49 49 48 48 47 47 46 47 51 52 52 51 51 50 49 48 47 45 42 41 38 36 35 34 35 35 34 32 31 29 29 29 31 31 30 27 26 26 26 24 22 20 20 20 21 21 20 20 21 22 22 23 25 28 29 29 25
52 56 57 57 56 55 57 59 57 53 52 50 47 45 43 46 53 55 52 52 54 52 49 48 47 45 44 45 45 45 45 46 46 45 44 46 49 50 49 49 49 49 47 45 43 41 39 39 37 35 34 33 32 32 30 28 28 28 29 29 29 27 24 23 23 23 23 21 20 19 20 21 22 22 21 22 23 24 23 24 27 29 30 29 26
49 53 57 60 60 57 58 59 57 55 54 53 50 47 43 41 46 52 54 55 57 55 53 52 51 51 50 48 48 47 45 45 45 44 43 43 43 42 43 44 43 43 42 40 39 37 35 34 33 32 30 28 27 26 25 25 26 26 25 24 23 22 22 22 22 21 21 20 20 20 21 23 23 23 23 24 25 26 26 27 29 31 31 29 27
46 46 54 63 66 60 57 58 58 55 55 55 52 50 49 44 42 45 50 54 57 58 59 56 53 55 55 53 54 52 48 47 46 44 43 41 39 38 37 37 36 36 35 34 33 33 32 30 28 26 25 24 24 24 24 23 23 23 22 21 22 24 24 23 23 24 24 23 22 22 22 23 23 24 25 26 27 28 28 29 31 32 32 31 29
47 45 49 60 65 60 57 58 57 56 57 58 55 54 55 52 46 46 47 51 55 60 62 59 54 55 57 56 53 51 51 50 47 45 45 41 38 35 32 32 32 31 30 29 28 27 26 25 24 24 24 24 25 26 26 25 25 23 23 24 26 27 26 25 25 25 26 26 26 25 24 24 25 26 26 27 28 28 29 30 32 34 33 33 33
48 46 49 61 65 58 56 59 60 58 58 58 57 57 58 57 54 51 47 47 53 56 58 59 57 53 55 55 52 52 55 53 46 44 44 40 38 37 34 32 29 27 25 24 23 23 22 22 23 25 27 28 28 28 27 26 26 25 26 27 27 27 27 27 26 25 26 27 27 25 25 26 27 26 27 28 29 31 31 32 35 36 35 36 36
53 53 56 66 70 66 62 61 61 61 60 59 60 60 61 59 56 53 47 47 52 51 50 54 57 56 55 54 50 49 50 47 42 42 42 42 42 41 38 34 30 26 24 23 23 23 23 24 24 26 28 28 28 28 27 27 28 28 28 28 28 28 28 28 26 25 26 28 28 25 25 29 30 30 32 33 34 36 36 36 36 37 37 37 36
65 69 67 67 69 73 70 59 57 64 65 60 59 61 63 61 57 53 49 47 49 47 43 43 48 57 59 53 47 44 46 50 51 48 47 49 48 46 43 39 33 29 26 25 26 26 26 27 27 28 29 28 27 27 28 30 31 31 30 30 30 30 29 30 28 27 28 30 30 28 27 31 35 39 42 42 39 40 41 40 39 39 39 39 37
70 75 73 70 71 75 70 60 60 69 71 66 62 62 62 61 60 58 51 45 43 42 41 40 40 47 51 49 47 46 47 52 54 49 46 47 46 44 43 40 36 32 29 29 29 30 31 32 31 29 28 27 27 29 32 33 34 35 35 34 33 33 32 32 31 30 31 33 33 30 29 33 39 44 46 46 44 43 42 42 43 43 43 42 41
74 74 72 73 77 77 72 67 65 66 66 68 69 66 63 63 64 59 50 46 43 40 40 39 38 40 42 44 47 49 49 50 49 46 46 47 46 43 40 38 36 35 35 35 36 35 35 34 32 30 29 28 29 31 36 38 39 39 38 36 35 35 35 34 33 32 33 35 37 35 33 37 44 47 48 47 48 49 48 47 48 48 47 45 45
83 82 78 78 80 79 76 73 69 65 63 65 69 66 63 62 61 54 48 47 45 42 40 40 40 41 41 41 42 44 45 46 45 45 48 50 49 44 39 38 38 39 41 41 40 39 38 36 34 33 33 33 34 37 40 42 43 42 40 40 40 39 37 35 35 35 35 38 42 42 39 40 44 47 48 49 50 52 54 53 52 53 52 51 50
86 88 87 85 83 80 78 75 72 71 69 67 68 68 64 58 53 50 49 49 46 43 40 39 40 41 41 40 41 41 42 42 43 44 45 45 46 44 41 39 40 42 42 39 38 38 37 38 39 40 41 42 42 44 45 46 47 46 45 46 48 47 45 43 41 42 44 46 49 50 49 48 48 48 49 51 51 51 53 54 53 54 56 57 56
87 89 89 88 85 83 80 79 76 77 77 74 71 72 70 63 54 49 47 48 48 45 41 37 35 35 35 37 38 40 40 42 46 50 48 46 47 46 43 41 39 39 37 35 36 38 36 37 42 45 48 51 52 51 52 54 57 56 52 51 52 53 52 51 51 51 54 56 57 57 56 56 56 56 54 54 54 54 53 54 55 54 55 58 59
87 87 85 84 84 84 85 84 82 81 83 82 78 78 79 74 63 54 48 47 45 44 41 38 34 32 32 33 34 35 36 38 43 49 51 51 48 43 41 40 37 35 36 37 40 42 41 40 43 45 48 51 52 52 55 59 63 61 58 55 55 56 57 58 59 58 58 61 62 61 59 59 60 62 61 58 57 59 59 59 60 59 57 57 59
84 84 83 83 84 86 89 92 91 88 86 85 84 84 85 81 73 65 59 55 50 47 46 45 43 39 38 38 38 39 41 43 45 50 55 58 53 45 43 42 39 39 42 42 44 46 46 43 43 44 45 48 51 53 56 59 60 61 60 59 60 62 64 63 63 63 64 65 66 65 63 62 63 65 66 63 60 61 64 64 65 63 60 59 60